Location: Recife
(8.0585°S, 34.8848°W)
Time: 13:41:48
(UTC-03:00)

Tiros 1 despin weight - Pass Details

Date: 19 April 2026
Orbit: 555 x 591 km, 48.2° (Epoch: 14 May)

Event Time Altitude Azimuth Distance (km) Brightness Sun altitude
Rises 23:39:11 0° 319° (NW) 2,803 - -83.9°
Reaches altitude 10° 23:41:28 10° 318° (NW) 1,907 - -83.4°
Maximum altitude 23:45:50 82° 232° (SW) 599 - -82.5°
Drops below altitude 10° 23:50:14 10° 143° (SE) 1,913 - -81.5°
Sets 23:52:31 0° 142° (SE) 2,813 - -81.0°
